Sigfox identifier Datetime Temperature Humidity SNR
003A59C9 2019-04-23 15:04:46 21.5 28 16.1
003A59C9 2019-04-23 14:34:28 21.4 28 15.6
003A59C9 2019-04-23 13:33:45 21.4 28 15.7
003A59C9 2019-04-23 13:03:25 21.4 28 15.7
003A59C9 2019-04-23 12:33:07 21.4 28 15.6
003A59C9 2019-04-23 12:02:45 21.4 28 14.7
003A59C9 2019-04-23 11:32:25 21.3 28 14.8
003A59C9 2019-04-23 11:02:04 21.2 27 14.4
003A59C9 2019-04-23 10:31:43 21.2 27 14.4
003A59C9 2019-04-23 10:01:21 21.2 27 14.4
003A59C9 2019-04-23 09:31:02 21.2 27 14
003A59C9 2019-04-23 09:00:40 21.1 27 17.9
003A59C9 2019-04-23 08:30:19 21.1 27 18
003A59C9 2019-04-23 08:00:00 21.1 27 18
003A59C9 2019-04-23 07:29:40 21.1 27 18.2
003A59C9 2019-04-23 06:59:21 21.1 27 18.3
003A59C9 2019-04-23 06:29:01 21.1 27 18.3
003A59C9 2019-04-23 05:58:41 21.2 27 18.3
003A59C9 2019-04-23 05:28:22 21.2 27 18.4
003A59C9 2019-04-23 04:58:03 21.1 27 18.4
003A59C9 2019-04-23 04:27:44 21.2 27 18.4
003A59C9 2019-04-23 03:57:26 21.1 27 18.3
003A59C9 2019-04-23 03:27:08 21.1 27 18.2
003A59C9 2019-04-23 02:56:46 21.2 27 18.3
003A59C9 2019-04-23 02:26:27 21.2 27 18.5
003A59C9 2019-04-23 01:56:08 21.1 27 18.8
003A59C9 2019-04-23 01:25:50 21.2 27 19
003A59C9 2019-04-23 00:55:30 21.2 27 19
003A59C9 2019-04-23 00:25:11 21.1 27 19
003A59C9 2019-04-22 23:54:52 21.1 27 19.1
003A59C9 2019-04-22 23:24:32 21.1 27 19.1
003A59C9 2019-04-22 22:54:12 21.1 27 19.1
003A59C9 2019-04-22 22:23:52 21.1 27 20.8
003A59C9 2019-04-22 21:53:33 21 27 20.9
003A59C9 2019-04-22 21:23:14 21.1 27 21
003A59C9 2019-04-22 20:52:54 21.1 27 19.3
003A59C9 2019-04-22 20:22:33 21 27 19.3
003A59C9 2019-04-22 19:52:14 21.1 27 19.5
003A59C9 2019-04-22 19:21:54 21 27 19.5
003A59C9 2019-04-22 18:51:38 21 27 19.4
003A59C9 2019-04-22 18:21:16 21 27 19.3
003A59C9 2019-04-22 17:50:58 21 27 19.3
003A59C9 2019-04-22 17:20:37 21.1 27 19.3
003A59C9 2019-04-22 16:50:17 21.1 27 19.2
003A59C9 2019-04-22 16:19:58 21.1 27 19.2
003A59C9 2019-04-22 15:49:39 21.1 27 19.2
003A59C9 2019-04-22 15:19:20 21.1 27 19.4
003A59C9 2019-04-22 14:49:00 21.2 26 19.2
003A59C9 2019-04-22 14:18:40 21.2 26 19.2
003A59C9 2019-04-22 13:48:20 21.1 26 19.1
003A59C9 2019-04-22 13:18:00 21.2 26 18.8
003A59C9 2019-04-22 12:47:41 21.2 26 18.5
003A59C9 2019-04-22 12:17:21 21.2 26 18.5
003A59C9 2019-04-22 11:47:06 21.2 26 18.8
003A59C9 2019-04-22 11:16:45 21.2 26 18.7
003A59C9 2019-04-22 10:46:23 21.2 26 19
003A59C9 2019-04-22 10:16:03 21.2 26 18.9
003A59C9 2019-04-22 09:45:44 21.2 26 16.3
003A59C9 2019-04-22 09:15:25 21.2 26 16.6
003A59C9 2019-04-22 08:45:06 21.2 26 16.3
003A59C9 2019-04-22 08:14:48 21.2 26 16.2
003A59C9 2019-04-22 07:44:26 21.2 26 16.1
003A59C9 2019-04-22 07:14:06 21.2 26 15.8
003A59C9 2019-04-22 06:43:47 21.2 26 15.9
003A59C9 2019-04-22 06:13:27 21.2 26 15.5
003A59C9 2019-04-22 05:43:07 21.2 26 16
003A59C9 2019-04-22 05:12:48 21.2 26 16
003A59C9 2019-04-22 04:42:28 21.2 26 16
003A59C9 2019-04-22 04:12:11 21.2 26 16
003A59C9 2019-04-22 03:41:50 21.2 26 16
003A59C9 2019-04-22 03:11:34 21.2 26 16.2
003A59C9 2019-04-22 02:41:12 21.2 26 16
003A59C9 2019-04-22 02:10:53 21.2 26 16
003A59C9 2019-04-22 01:40:35 21.3 26 16.4
003A59C9 2019-04-22 01:10:14 21.3 26 16.6
003A59C9 2019-04-22 00:39:54 21.3 26 16.8
003A59C9 2019-04-22 00:09:35 21.4 26 16.9
003A59C9 2019-04-21 23:39:15 21.4 26 16.9
003A59C9 2019-04-21 23:08:56 21.4 26 16.5
003A59C9 2019-04-21 22:38:37 21.4 26 16.6
003A59C9 2019-04-21 22:08:19 21.4 26 16.1
003A59C9 2019-04-21 21:37:58 21.4 26 16.3
003A59C9 2019-04-21 21:07:39 21.4 26 15.8
003A59C9 2019-04-21 20:37:19 21.4 26 15.3
003A59C9 2019-04-21 20:07:01 21.3 26 15.3
003A59C9 2019-04-21 19:36:39 21.2 26 15.4
003A59C9 2019-04-21 19:06:20 21.2 26 15.6
003A59C9 2019-04-21 18:36:01 21.2 26 15.5
003A59C9 2019-04-21 18:05:41 21.2 26 15.6
003A59C9 2019-04-21 17:35:24 21.2 26 15.6
003A59C9 2019-04-21 17:05:02 21.2 26 15.6
003A59C9 2019-04-21 16:34:43 21.2 26 15.7
003A59C9 2019-04-21 16:04:24 21.2 26 15.8
003A59C9 2019-04-21 15:34:05 21.2 26 15.8
003A59C9 2019-04-21 15:03:45 21 26 15.8
003A59C9 2019-04-21 14:33:27 21.1 26 15.6
003A59C9 2019-04-21 14:03:08 21 26 15.3
003A59C9 2019-04-21 13:32:49 21 25 15.5
003A59C9 2019-04-21 13:02:30 21 25 15
003A59C9 2019-04-21 12:32:12 21 25 14.5
003A59C9 2019-04-21 12:01:51 21 25 14.5
003A59C9 2019-04-21 11:31:31 21 25 14.8
003A59C9 2019-04-21 11:01:12 21 25 15.2
003A59C9 2019-04-21 10:30:52 21 25 15
003A59C9 2019-04-21 10:00:33 21 25 15.4
003A59C9 2019-04-21 09:30:14 21 25 15.4
003A59C9 2019-04-21 08:59:54 21.1 25 15.2
003A59C9 2019-04-21 08:29:34 21.1 25 15.8
003A59C9 2019-04-21 07:59:15 21.1 25 16.5
003A59C9 2019-04-21 07:28:57 21.1 25 16.6
003A59C9 2019-04-21 06:58:38 21.1 25 16.6
003A59C9 2019-04-21 06:28:18 21.2 25 16.5
003A59C9 2019-04-21 05:57:59 21.2 25 16.5
003A59C9 2019-04-21 05:27:41 21.2 25 16.4
003A59C9 2019-04-21 04:57:24 21.2 25 16.5
003A59C9 2019-04-21 04:27:04 21.2 25 16
003A59C9 2019-04-21 03:56:45 21.2 25 16.5
003A59C9 2019-04-21 03:26:26 21.2 25 16.4
003A59C9 2019-04-21 02:56:08 21.2 25 16.4
003A59C9 2019-04-21 02:25:50 21.2 25 17
003A59C9 2019-04-21 01:55:29 21.2 25 17
003A59C9 2019-04-21 01:25:10 21.2 25 17
003A59C9 2019-04-21 00:54:52 21.2 25 17
003A59C9 2019-04-21 00:24:32 21.2 25 17.3
003A59C9 2019-04-20 23:54:13 21.2 25 17.5
003A59C9 2019-04-20 23:23:55 21.2 25 17.2
003A59C9 2019-04-20 22:53:35 21.2 25 17.1
003A59C9 2019-04-20 22:23:16 21.2 25 16.9
003A59C9 2019-04-20 21:52:57 21.2 25 16.9
003A59C9 2019-04-20 21:22:38 21.2 25 16.6
003A59C9 2019-04-20 20:52:22 21.2 25 16.7
003A59C9 2019-04-20 20:22:03 21.2 25 17.1
003A59C9 2019-04-20 19:51:41 21.2 24 16.8
003A59C9 2019-04-20 19:21:22 21.2 24 16.1
003A59C9 2019-04-20 18:51:03 21.2 24 16.2
003A59C9 2019-04-20 18:20:43 21.2 24 16.3
003A59C9 2019-04-20 17:50:23 21.2 24 16.4
003A59C9 2019-04-20 17:20:07 21.2 24 16.4
003A59C9 2019-04-20 16:49:47 21.2 24 16.7
003A59C9 2019-04-20 16:19:26 21.2 24 16.2
003A59C9 2019-04-20 15:49:09 21.2 24 16.7
003A59C9 2019-04-20 15:18:47 21.2 24 16.7
003A59C9 2019-04-20 14:48:28 21.1 24 16.1
003A59C9 2019-04-20 14:18:08 21.1 24 16.4
003A59C9 2019-04-20 13:47:49 21 24 16.4
003A59C9 2019-04-20 13:17:29 21 24 16.6
003A59C9 2019-04-20 12:47:09 21 24 16.9
003A59C9 2019-04-20 12:16:50 21 24 16.6
003A59C9 2019-04-20 11:46:31 21 24 16.9
003A59C9 2019-04-20 11:16:11 21 24 16.9
003A59C9 2019-04-20 10:45:54 21 24 16.8
003A59C9 2019-04-20 10:15:33 21 24 16.9
003A59C9 2019-04-20 09:45:16 21 24 17
003A59C9 2019-04-20 09:14:54 21 24 17.2
003A59C9 2019-04-20 08:44:33 21 24 16.7
003A59C9 2019-04-20 08:14:15 21 24 16.9
003A59C9 2019-04-20 07:43:56 21 24 16.9
003A59C9 2019-04-20 07:13:37 21 24 17
003A59C9 2019-04-20 06:43:17 21 24 17.4
003A59C9 2019-04-20 06:12:57 21 24 17.5
003A59C9 2019-04-20 05:42:39 21 24 17.5
003A59C9 2019-04-20 05:12:21 21 24 17.7
003A59C9 2019-04-20 04:42:02 21 24 17.8
003A59C9 2019-04-20 04:11:44 21 24 17.5
003A59C9 2019-04-20 03:41:25 20.9 24 17.6
003A59C9 2019-04-20 03:11:07 21 24 18
003A59C9 2019-04-20 02:40:48 20.9 24 18.1
003A59C9 2019-04-20 02:10:29 21 24 18.1
003A59C9 2019-04-20 01:40:09 20.9 24 17.9
003A59C9 2019-04-20 01:09:51 20.9 24 18.1
003A59C9 2019-04-20 00:39:35 20.9 24 17.9
003A59C9 2019-04-20 00:09:14 20.9 24 17.5
003A59C9 2019-04-19 23:38:56 20.9 24 17.8
003A59C9 2019-04-19 23:08:39 20.9 24 17.7
003A59C9 2019-04-19 22:38:20 20.9 24 17.8
003A59C9 2019-04-19 22:08:02 20.9 24 17.9
003A59C9 2019-04-19 21:37:44 20.9 24 17.9
003A59C9 2019-04-19 21:07:25 20.7 24 17.8
003A59C9 2019-04-19 20:37:06 20.9 24 17.7
003A59C9 2019-04-19 20:06:48 20.9 24 18.1
003A59C9 2019-04-19 19:36:28 20.8 24 18.3
003A59C9 2019-04-19 19:06:08 20.7 24 18.4
003A59C9 2019-04-19 18:35:49 20.7 24 18.2
003A59C9 2019-04-19 18:05:30 20.8 24 18.1
003A59C9 2019-04-19 17:35:11 20.7 24 17.8
003A59C9 2019-04-19 17:04:52 20.9 24 17.8
003A59C9 2019-04-19 16:34:36 20.9 24 17.5
003A59C9 2019-04-19 16:04:16 20.8 24 17.5
003A59C9 2019-04-19 15:33:57 20.9 25 17.6
003A59C9 2019-04-19 15:03:38 20.9 25 17.6
003A59C9 2019-04-19 14:33:19 21 25 16.9
003A59C9 2019-04-19 14:03:00 21 25 17.2
003A59C9 2019-04-19 13:32:41 21 25 17.1
003A59C9 2019-04-19 13:02:22 21 25 17.2
003A59C9 2019-04-19 12:32:03 21 25 16.9
003A59C9 2019-04-19 12:01:47 21 25 17.3
003A59C9 2019-04-19 11:31:26 21 25 17.2
003A59C9 2019-04-19 11:01:08 21 25 17
003A59C9 2019-04-19 10:30:49 21 25 17.2
003A59C9 2019-04-19 10:00:30 21.1 26 17.1
003A59C9 2019-04-19 09:30:11 21.1 26 17
003A59C9 2019-04-19 08:59:52 21.2 26 16.9
003A59C9 2019-04-19 08:29:34 21.2 26 16.9
003A59C9 2019-04-19 07:59:17 21.2 26 16.8
003A59C9 2019-04-19 07:28:56 21.2 26 16.2
003A59C9 2019-04-19 06:58:37 21.2 26 15.6
003A59C9 2019-04-19 06:28:17 21.2 26 15.4
003A59C9 2019-04-19 05:57:58 21.2 26 15.5
003A59C9 2019-04-19 05:27:40 21.2 26 15.6
003A59C9 2019-04-19 04:57:23 21.2 26 15.5
003A59C9 2019-04-19 04:27:02 21.2 26 15.5
003A59C9 2019-04-19 03:56:43 21.2 26 15.5
003A59C9 2019-04-19 03:26:25 21.2 26 15.5
003A59C9 2019-04-19 02:56:08 21.2 26 18.6
003A59C9 2019-04-19 02:25:47 21.2 26 20.5
003A59C9 2019-04-19 01:55:27 21.2 26 21.8
003A59C9 2019-04-19 01:25:10 21.2 26 22.7
003A59C9 2019-04-19 00:54:50 21.2 26 22.8
003A59C9 2019-04-19 00:24:30 21.2 26 22.9
003A59C9 2019-04-18 23:54:11 21.2 26 23
003A59C9 2019-04-18 23:23:53 21.2 26 23
003A59C9 2019-04-18 22:53:34 21.2 26 23.8
003A59C9 2019-04-18 22:23:15 21.2 26 24
003A59C9 2019-04-18 21:52:57 21.2 26 24
003A59C9 2019-04-18 21:22:37 21.2 26 24.2
003A59C9 2019-04-18 20:52:18 21.2 26 24.3
003A59C9 2019-04-18 20:21:59 21.3 26 24.4
003A59C9 2019-04-18 19:51:40 21.4 26 24.6
003A59C9 2019-04-18 19:21:21 21.4 26 24.7
003A59C9 2019-04-18 18:20:44 21.4 27 24.8
003A59C9 2019-04-18 17:50:26 21.4 27 24.9
003A59C9 2019-04-18 17:20:07 21.4 27 24.9
003A59C9 2019-04-18 16:49:51 21.4 27 25.1
003A59C9 2019-04-18 16:19:30 21.5 27 25.2
003A59C9 2019-04-18 15:49:12 21.5 27 25.3
003A59C9 2019-04-18 15:18:53 21.6 27 25.4
003A59C9 2019-04-18 14:48:36 21.6 27 25.5
003A59C9 2019-04-18 14:18:15 21.6 27 25.6
003A59C9 2019-04-18 13:47:56 21.8 27 25.1
003A59C9 2019-04-18 13:17:37 21.9 27 24.8
003A59C9 2019-04-18 12:47:18 22 26 24.3
003A59C9 2019-04-18 12:17:00 22.4 26 23.8
003A59C9 2019-04-18 11:46:41 22.5 20 23.8
003A59C9 2019-04-18 11:16:22 22.3 21 23.9
003A59C9 2019-04-18 10:46:02 22.2 22 24
003A59C9 2019-04-18 10:15:43 22.2 22 24
003A59C9 2019-04-18 09:45:24 22.2 22 23.4
003A59C9 2019-04-18 09:15:05 22.2 21 23.4
003A59C9 2019-04-18 08:44:45 22.2 21 23.4
003A59C9 2019-04-18 08:14:26 22.2 21 23.4
003A59C9 2019-04-18 07:44:08 22.2 21 23.4
003A59C9 2019-04-18 07:13:50 22.2 21 23.5
003A59C9 2019-04-18 06:43:30 22.2 21 23.6
003A59C9 2019-04-18 06:13:11 22.2 22 23.7
003A59C9 2019-04-18 05:42:52 22.2 22 23.6
003A59C9 2019-04-18 05:12:34 22.2 22 23.5
003A59C9 2019-04-18 04:42:14 22.2 22 23.6
003A59C9 2019-04-18 04:11:55 22.2 22 23.5
003A59C9 2019-04-18 03:41:35 22.2 22 23.4
003A59C9 2019-04-18 03:11:16 22.3 22 23.4
003A59C9 2019-04-18 02:40:56 22.3 22 23.4
003A59C9 2019-04-18 02:10:37 22.4 22 23.4
003A59C9 2019-04-18 01:40:19 22.4 22 23.4
003A59C9 2019-04-18 01:09:59 22.4 22 23.6
003A59C9 2019-04-18 00:39:40 22.5 22 24.1
003A59C9 2019-04-18 00:09:21 22.5 22 24.2
003A59C9 2019-04-17 23:39:01 22.5 22 24.7
003A59C9 2019-04-17 23:08:42 22.5 22 24.7
003A59C9 2019-04-17 22:38:23 22.5 23 24.7
003A59C9 2019-04-17 22:08:03 22.5 22 24.7
003A59C9 2019-04-17 21:37:44 22.7 22 24.8
003A59C9 2019-04-17 21:07:23 22.7 22 24.9
003A59C9 2019-04-17 20:37:03 22.7 22 24.9
003A59C9 2019-04-17 20:06:44 22.9 22 24.9
003A59C9 2019-04-17 19:36:24 22.9 22 25
003A59C9 2019-04-17 19:06:03 22.9 22 24.9
003A59C9 2019-04-17 18:35:44 22.9 22 24.8
003A59C9 2019-04-17 18:05:25 22.9 21 24.8
003A59C9 2019-04-17 17:35:05 22.9 21 24.7
003A59C9 2019-04-17 17:04:46 23 21 24.8
003A59C9 2019-04-17 16:34:27 23 21 24.9
003A59C9 2019-04-17 16:04:07 23 22 25
003A59C9 2019-04-17 15:33:49 22.9 22 25
003A59C9 2019-04-17 15:03:29 22.9 22 25
003A59C9 2019-04-17 14:33:11 22.9 23 25
003A59C9 2019-04-17 14:02:52 22.9 23 25
003A59C9 2019-04-17 13:32:34 22.7 23 25
003A59C9 2019-04-17 13:02:15 22.7 23 25.1
003A59C9 2019-04-17 12:31:56 22.5 23 25
003A59C9 2019-04-17 12:01:37 22.5 22 24.7
003A59C9 2019-04-17 11:31:19 22.3 22 24.6
003A59C9 2019-04-17 11:01:00 22.2 22 24.1
003A59C9 2019-04-17 10:30:42 22.2 21 24.6
003A59C9 2019-04-17 10:00:24 22.2 21 24.7
003A59C9 2019-04-17 09:30:05 22.2 21 24.6
003A59C9 2019-04-17 08:59:47 22.2 21 24.6
003A59C9 2019-04-17 08:29:28 22.2 21 24.6
003A59C9 2019-04-17 07:59:09 22.2 20 24.6
003A59C9 2019-04-17 07:28:50 22.1 19 24.5
003A59C9 2019-04-17 06:58:31 22.1 19 24.6
003A59C9 2019-04-17 06:28:13 22.1 19 24.6
003A59C9 2019-04-17 05:57:55 22.1 19 24.6
003A59C9 2019-04-17 05:27:35 22.1 19 24.7
003A59C9 2019-04-17 04:57:16 22 19 24.6
003A59C9 2019-04-17 04:26:58 22.2 19 24.6
003A59C9 2019-04-17 03:56:39 22.1 20 24.5
003A59C9 2019-04-17 03:26:21 22.2 20 24.5
003A59C9 2019-04-17 02:56:03 22.2 20 24.7
003A59C9 2019-04-17 02:25:45 22.2 20 24.7
003A59C9 2019-04-17 01:55:26 22.2 20 24.7
003A59C9 2019-04-17 01:25:08 22.2 20 25.1
003A59C9 2019-04-17 00:54:49 22.2 20 25.1
003A59C9 2019-04-17 00:24:29 22.2 20 25
003A59C9 2019-04-16 23:54:10 22.2 20 24.9
003A59C9 2019-04-16 23:23:50 22.2 20 24.8
003A59C9 2019-04-16 22:53:31 22.2 20 24.8
003A59C9 2019-04-16 22:23:11 22.3 20 24.7
003A59C9 2019-04-16 21:52:52 22.5 20 24.1
003A59C9 2019-04-16 21:22:33 22.5 20 24
003A59C9 2019-04-16 20:52:14 22.5 20 23.9
003A59C9 2019-04-16 20:21:54 22.5 19 24
003A59C9 2019-04-16 19:51:36 22.5 19 24.1
003A59C9 2019-04-16 19:21:16 22.5 19 24.1
003A59C9 2019-04-16 18:50:57 22.5 19 24.1
003A59C9 2019-04-16 18:20:37 22.5 18 24.1
003A59C9 2019-04-16 17:50:17 22.6 18 24.1
003A59C9 2019-04-16 17:19:58 22.7 18 24.1
003A59C9 2019-04-16 16:49:38 22.7 18 24.6
003A59C9 2019-04-16 16:19:18 22.8 19 24.8
003A59C9 2019-04-16 15:48:58 22.7 18 24.7
003A59C9 2019-04-16 15:18:37 22.7 19 24.8
003A59C9 2019-04-16 14:48:17 22.7 19 24.8
003A59C9 2019-04-16 14:17:59 22.7 18 24.6
003A59C9 2019-04-16 13:47:39 22.5 18 24.8
003A59C9 2019-04-16 13:17:20 22.5 18 24.8
003A59C9 2019-04-16 12:47:00 22.5 18 24.4
003A59C9 2019-04-16 12:16:40 22.3 18 24.4
003A59C9 2019-04-16 11:46:20 22.2 17 24.5
003A59C9 2019-04-16 11:16:00 22.2 18 24.6
003A59C9 2019-04-16 10:45:41 22.2 18 25.1
003A59C9 2019-04-16 10:15:21 22.2 18 25.1
003A59C9 2019-04-16 09:45:01 22 18 25.3
003A59C9 2019-04-16 09:14:40 22.1 18 25.3
003A59C9 2019-04-16 08:44:21 22.2 18 25.4
003A59C9 2019-04-16 08:14:00 22.1 18 25.4
003A59C9 2019-04-16 07:43:41 22.1 17 25.3
003A59C9 2019-04-16 07:13:21 22.1 17 25.3
003A59C9 2019-04-16 06:43:02 22 17 25.4
003A59C9 2019-04-16 06:12:43 22 17 25.7
003A59C9 2019-04-16 05:42:24 22 17 25.7
003A59C9 2019-04-16 05:12:04 22 17 25.7
003A59C9 2019-04-16 04:41:45 22 17 25.7
003A59C9 2019-04-16 04:11:24 22 17 25.3
003A59C9 2019-04-16 03:41:05 22 17 25.2
003A59C9 2019-04-16 03:10:45 22.1 17 25.2
003A59C9 2019-04-16 02:40:26 22.2 17 25.2
003A59C9 2019-04-16 02:10:06 22.1 17 25.2
003A59C9 2019-04-16 01:39:47 22.2 17 25.6
003A59C9 2019-04-16 01:09:28 22.1 17 25.5
003A59C9 2019-04-16 00:39:09 22.2 17 25.4
003A59C9 2019-04-16 00:08:49 22.2 17 25.4
003A59C9 2019-04-15 23:38:31 22.2 17 25.4
003A59C9 2019-04-15 23:08:10 22.2 17 25.7
003A59C9 2019-04-15 22:37:51 22.2 17 25.7
003A59C9 2019-04-15 22:07:31 22.2 17 25.2
003A59C9 2019-04-15 21:37:12 22.3 16 25.2
003A59C9 2019-04-15 21:06:52 22.5 16 25
003A59C9 2019-04-15 20:36:33 22.5 16 25
003A59C9 2019-04-15 20:06:13 22.5 16 24.9
003A59C9 2019-04-15 19:35:55 22.5 16 25
003A59C9 2019-04-15 19:05:34 22.5 15 25.3
003A59C9 2019-04-15 18:35:15 22.5 15 25.4
003A59C9 2019-04-15 18:04:56 22.6 15 25.3
003A59C9 2019-04-15 17:34:36 22.7 15 24.9
003A59C9 2019-04-15 17:04:16 22.7 15 24.9
003A59C9 2019-04-15 16:33:56 22.7 15 24.9
003A59C9 2019-04-15 16:03:36 22.7 15 24.9
003A59C9 2019-04-15 15:33:17 22.7 15 25
003A59C9 2019-04-15 15:02:57 22.7 15 25.1
003A59C9 2019-04-15 14:32:38 22.7 15 25.1
003A59C9 2019-04-15 14:02:19 22.7 16 25.2
003A59C9 2019-04-15 13:31:59 22.6 16 25.4
003A59C9 2019-04-15 13:01:39 22.5 16 25
003A59C9 2019-04-15 12:31:19 22.5 16 25.1
003A59C9 2019-04-15 12:00:59 22.3 15 25.2
003A59C9 2019-04-15 11:30:39 22.2 15 25.2
003A59C9 2019-04-15 11:00:19 22.2 16 25.2
003A59C9 2019-04-15 10:30:00 22.2 16 24.9
003A59C9 2019-04-15 09:59:41 22.2 16 25.1
003A59C9 2019-04-15 09:29:21 22.1 17 25.1
003A59C9 2019-04-15 08:59:02 22 17 25.1
003A59C9 2019-04-15 08:28:43 22 17 25.2
003A59C9 2019-04-15 07:58:24 21.9 16 25.3
003A59C9 2019-04-15 07:28:05 21.8 17 25.4
003A59C9 2019-04-15 06:57:45 21.8 17 25.4
003A59C9 2019-04-15 06:27:25 21.8 17 25
003A59C9 2019-04-15 05:57:07 21.8 17 25
003A59C9 2019-04-15 05:26:47 21.8 17 25.1
003A59C9 2019-04-15 04:56:27 21.8 17 25.1
003A59C9 2019-04-15 04:26:08 21.8 17 25
003A59C9 2019-04-15 03:55:48 21.8 17 24.9
003A59C9 2019-04-15 03:25:29 21.8 17 24.9
003A59C9 2019-04-15 02:55:09 21.8 17 24.8
003A59C9 2019-04-15 02:24:49 21.8 17 24.7
003A59C9 2019-04-15 01:54:29 21.8 17 24.7
003A59C9 2019-04-15 01:24:09 21.8 17 24.7
003A59C9 2019-04-15 00:53:49 21.8 17 24.4
003A59C9 2019-04-15 00:23:30 21.8 17 24.4
003A59C9 2019-04-14 23:53:09 21.8 17 24.3
003A59C9 2019-04-14 23:22:49 21.8 17 24.3
003A59C9 2019-04-14 22:52:30 21.8 17 24.4
003A59C9 2019-04-14 22:22:09 21.8 17 24.4
003A59C9 2019-04-14 21:51:50 21.9 18 24.2
003A59C9 2019-04-14 21:21:30 22 18 24.1
003A59C9 2019-04-14 20:51:08 22 18 24.2
003A59C9 2019-04-14 20:20:48 22 18 24.2
003A59C9 2019-04-14 19:50:27 22.1 18 24.4
003A59C9 2019-04-14 19:20:07 22.1 18 24.3
003A59C9 2019-04-14 18:49:47 22.1 18 24.2
003A59C9 2019-04-14 18:19:25 22 18 24.2
003A59C9 2019-04-14 17:49:05 22 18 24.4
003A59C9 2019-04-14 17:18:44 22 18 24.8
003A59C9 2019-04-14 16:48:23 21.9 17 24.7
003A59C9 2019-04-14 16:18:02 21.8 18 24.7
003A59C9 2019-04-14 15:47:43 21.9 18 24.9
003A59C9 2019-04-14 15:17:22 21.9 18 25
003A59C9 2019-04-14 14:47:01 21.9 18 25.1
003A59C9 2019-04-14 14:16:40 21.9 18 25
003A59C9 2019-04-14 13:46:19 21.9 18 25.1
003A59C9 2019-04-14 13:15:59 21.9 18 25.1
003A59C9 2019-04-14 12:45:39 22 18 25.1
003A59C9 2019-04-14 12:15:19 22 18 25.2
003A59C9 2019-04-14 11:45:00 22 18 25.2
003A59C9 2019-04-14 11:14:40 21.9 18 25.5
003A59C9 2019-04-14 10:44:19 21.9 18 25.5
003A59C9 2019-04-14 10:13:59 21.8 18 25.6
003A59C9 2019-04-14 09:43:38 21.8 18 25.6
003A59C9 2019-04-14 09:13:18 21.9 18 25.7
003A59C9 2019-04-14 08:42:58 21.8 18 25.8
003A59C9 2019-04-14 08:12:36 21.8 18 25.7
003A59C9 2019-04-14 07:42:16 21.8 18 25.8
003A59C9 2019-04-14 07:11:56 21.8 17 25.7
003A59C9 2019-04-14 06:41:36 21.8 17 26
003A59C9 2019-04-14 06:11:15 21.8 17 26.3
003A59C9 2019-04-14 05:40:56 21.8 17 26.2
003A59C9 2019-04-14 05:10:37 21.8 17 26.1
003A59C9 2019-04-14 04:40:16 21.8 17 25.9
003A59C9 2019-04-14 04:09:56 21.8 17 25.9
003A59C9 2019-04-14 03:39:35 21.8 17 25.8
003A59C9 2019-04-14 03:09:15 21.9 17 25.8
003A59C9 2019-04-14 02:38:53 22 18 25.7
003A59C9 2019-04-14 02:08:33 22 18 25.6
003A59C9 2019-04-14 01:38:13 22 18 25.7
003A59C9 2019-04-14 01:07:53 22 18 26
003A59C9 2019-04-14 00:37:33 22 18 26
003A59C9 2019-04-14 00:07:13 22 17 26
003A59C9 2019-04-13 23:36:53 22 17 26
003A59C9 2019-04-13 23:06:34 22 17 26.2
003A59C9 2019-04-13 22:36:13 22 17 25.8
003A59C9 2019-04-13 22:05:52 22 17 25.8
003A59C9 2019-04-13 21:35:32 22 17 25.6
003A59C9 2019-04-13 21:05:11 22 17 25.7
003A59C9 2019-04-13 20:34:50 22 17 25.6
003A59C9 2019-04-13 20:04:30 22 17 25.5
003A59C9 2019-04-13 19:34:11 22.1 17 25.5
003A59C9 2019-04-13 19:03:50 22.2 17 25.4
003A59C9 2019-04-13 18:33:31 22.2 17 25.4
003A59C9 2019-04-13 18:03:10 22.2 17 24.9
003A59C9 2019-04-13 17:32:50 22.2 17 24.6
003A59C9 2019-04-13 17:02:29 22.2 17 24.6
003A59C9 2019-04-13 16:32:09 22.2 17 24.6
003A59C9 2019-04-13 16:01:48 22.2 17 24.5
003A59C9 2019-04-13 15:31:26 22.2 17 24.6
003A59C9 2019-04-13 15:01:05 22.3 17 24.7
003A59C9 2019-04-13 14:30:45 22.3 17 24.8
003A59C9 2019-04-13 14:00:23 22.4 17 24.8
003A59C9 2019-04-13 13:30:01 22.4 17 24.7
003A59C9 2019-04-13 12:59:40 22.4 17 24.7
003A59C9 2019-04-13 12:29:20 22.4 17 24.3
003A59C9 2019-04-13 11:58:58 22.5 17 24.3
003A59C9 2019-04-13 11:28:37 22.5 17 24.1
003A59C9 2019-04-13 10:58:17 22.4 17 24.1
003A59C9 2019-04-13 10:27:56 22.3 17 23.9
003A59C9 2019-04-13 09:57:35 22.3 17 23.9
003A59C9 2019-04-13 09:27:14 22.3 17 24
003A59C9 2019-04-13 08:56:54 22.3 17 23.9
003A59C9 2019-04-13 08:26:32 22.2 17 23.8
003A59C9 2019-04-13 07:56:12 22.2 17 23.8
003A59C9 2019-04-13 07:25:51 22.3 17 23.8
003A59C9 2019-04-13 06:55:30 22.2 17 24
003A59C9 2019-04-13 06:25:08 22.2 17 24
003A59C9 2019-04-13 05:54:46 22.2 17 24
003A59C9 2019-04-13 05:24:24 22.2 17 24.1
003A59C9 2019-04-13 04:54:04 22.2 17 23.9
003A59C9 2019-04-13 04:23:43 22.2 17 24
003A59C9 2019-04-13 03:53:21 22.2 17 24
003A59C9 2019-04-13 03:23:00 22.5 17 24
003A59C9 2019-04-13 02:52:39 22.5 17 24.4
003A59C9 2019-04-13 02:22:17 22.5 17 24.8
003A59C9 2019-04-13 01:51:57 22.5 17 24.7
003A59C9 2019-04-13 01:21:35 22.5 17 24.5
003A59C9 2019-04-13 00:51:14 22.5 17 24.6
003A59C9 2019-04-13 00:20:52 22.5 17 24.7
003A59C9 2019-04-12 23:50:30 22.5 18 24.7
003A59C9 2019-04-12 23:20:09 22.6 18 24.6
003A59C9 2019-04-12 22:49:47 22.6 18 24.8
003A59C9 2019-04-12 22:19:25 22.7 18 24.8
003A59C9 2019-04-12 21:49:03 22.7 18 24.9
003A59C9 2019-04-12 21:18:41 22.7 18 25
003A59C9 2019-04-12 20:48:19 22.8 18 25
003A59C9 2019-04-12 20:17:56 22.7 18 25.1
003A59C9 2019-04-12 19:47:33 22.7 17 25.2
003A59C9 2019-04-12 19:17:13 22.8 17 25.5
003A59C9 2019-04-12 18:46:51 22.8 17 25.5
003A59C9 2019-04-12 18:16:30 22.9 15 25.4
003A59C9 2019-04-12 17:46:08 23.1 16 25.6
003A59C9 2019-04-12 17:15:46 23.1 16 25.8
003A59C9 2019-04-12 16:45:24 23.1 16 25.9
003A59C9 2019-04-12 16:15:02 23.1 17 26.3
003A59C9 2019-04-12 15:44:40 23.1 16 26.5
003A59C9 2019-04-12 15:14:19 22.9 17 27.1
003A59C9 2019-04-12 14:43:56 22.9 17 27.6
003A59C9 2019-04-12 14:13:35 22.7 17 26.3
003A59C9 2019-04-12 13:43:12 22.2 18 21.5
003A59C9 2019-04-12 13:12:50 21.4 20 13.5